Weather in Shirokiy Buyerak

Russia / Saratov Oblast     51°19′11″N   45°47′12″E
В апреле 2022 года жителям России запретили посещать сайт meteo.paraplan.net по решению Генеральной прокуратуры. Аудитория сайта уменьшилась в 10 раз. Владельцы сайта не видят смысла в поддержке погодного сервера в таких условиях. Сайт будет закрыт в октябре.
temp.,
°C
wind,
m/s
gust,
m/s
humid.,
%
clouds,
%
prec.,
mm/h
press.,
hPa
HPBL,
m
4 october, tue
tue401:00+13se5893100 0.3 1016249
04:00+13sse599286 0.4 1017370
07:00+13se4693100 0.1 1018283
10:00+13se469067 0.1 1019264
13:00+15sse5868100 0.0 1019428
16:00+12sse61288100 1.0 1020569
19:00+11se91388100 3.9 1021850
22:00+10se7139192 6.8 1021688
5 october, wed
wed501:00+11sse498398 0.0 1021489
04:00+11se237991 0.0 1020187
07:00+11s2379100 0.0 102080
10:00+13s33777 0.0 1021173
13:00+16s3467100 0.0 1020445
16:00+16ssw4671100 0.2 1020279
19:00+13ssw4790100 1.7 1020191
22:00+12wsw49710 1.9 1020170
6 october, thu
thu601:00+10w59735 0.0 1020254
04:00+10w510772 0.0 1020457
07:00+8w69855 0.0 1020360
10:00+10w69735 0.0 1021731
13:00+12w895984 0.1 10201430
16:00+12wnw6960100 0.1 10201071
19:00+11wnw797089 0.0 1022802
22:00+10wnw4876100 0.1 1022548
7 october, fri
fri701:00+9wnw468499 0.3 1023299
04:00+10w4683100 0.3 1023366
07:00+10w3586100 0.0 1023266
10:00+12wsw468288 0.0 1022451
13:00+14wsw5870100 0.0 1022399
16:00+17w68545 0.0 1020528
19:00+14wnw46690 0.0 102273
22:00+13wnw4678100 0.0 102478
8 october, sat
sat801:00+12nw46860 0.0 1025106
04:00+10nnw34850 0.0 1026120
07:00+10nne11840 0.0 102870
10:00+11e11770 0.0 1028206
13:00+12e11730 0.0 1028325
16:00+12e22720 0.0 1027356
19:00+11ese11730 0.0 102717
22:00+12sse11725 0.0 102710